Location: Caltech
(34.1382°N, 118.1253°W)
Time: 17:21:47
(UTC-07:00)

Iridium 65 - Visible Passes

Search period start: 20 August 2014 00:00
Search period end: 30 August 2014 00:00
Orbit: 776 x 779 km, 86.4° (Epoch: 20 August)

Date Brightness Start Highest point End Pass type
(mag) Time Alt. Az. Time Alt. Az. Time Alt. Az.
20 Aug 8.3 00:05:01 12° NW 00:05:01 12° NW 00:05:49 10° NW visible
20 Aug 7.5 21:51:00 17° NE 21:51:00 17° NE 21:52:31 10° NNE visible
20 Aug 7.8 23:31:28 20° NW 23:31:28 20° NW 23:33:29 10° NNW visible
21 Aug 7.3 22:57:53 28° NNW 22:57:53 28° NNW 23:00:25 10° N visible
22 Aug 6.9 22:24:19 30° NNE 22:24:19 30° NNE 22:26:57 10° N visible
23 Aug 7.1 21:50:43 24° NE 21:50:43 24° NE 21:53:04 10° NNE visible
23 Aug 8.0 23:31:10 17° NW 23:31:10 17° NW 23:32:59 10° NNW visible
24 Aug 7.4 21:17:07 15° NE 21:17:07 15° NE 21:18:36 10° NE visible
24 Aug 7.4 22:57:34 27° NW 22:57:34 27° NW 23:00:18 10° NNW visible
25 Aug 6.7 22:23:56 37° N 22:23:56 37° N 22:27:03 10° N visible
26 Aug 6.6 21:50:18 35° NNE 21:50:18 35° NNE 21:53:26 10° NNE visible
26 Aug 8.3 23:30:45 13° WNW 23:30:45 13° WNW 23:32:01 10° NW visible
27 Aug 6.9 21:16:38 23° NE 21:16:38 23° NE 21:19:22 10° NNE visible
27 Aug 7.6 22:57:05 23° NW 22:57:05 23° NW 22:59:58 10° NNW visible
28 Aug 7.4 20:42:57 13° ENE 20:42:57 13° ENE 20:44:27 10° NE visible
28 Aug 6.7 22:23:24 40° NW 22:23:24 40° NW 22:27:01 10° N visible
29 Aug 6.0 21:49:41 52° NNE 21:49:41 52° NNE 21:53:37 10° N visible
